#timestamp,LO_Frequency,Hit,Temp,Hum 
1495573215.2,286046993.9,N,0.0,0.0
1495573235.1,286046994.1,N,0.0,0.0
1495573236.0,286046994.1,N,0.0,0.0
1495573255.8,286046995.8,N,0.0,0.0
1495573275.6,286046997.7,N,0.0,0.0
1495573295.5,286046995.0,N,0.0,0.0
1495573315.3,286046997.1,N,0.0,0.0
1495573335.1,286047000.8,N,0.0,0.0
1495573355.8,286047000.6,N,0.0,0.0
1495573375.7,286046999.6,N,0.0,0.0
1495573395.5,286046999.3,N,0.0,0.0
1495573415.3,286046997.5,N,0.0,0.0
1495573435.2,286046993.8,N,0.0,0.0
1495573455.0,286046993.1,N,0.0,0.0
1495573455.9,286046993.1,N,0.0,0.0
1495573475.8,286046992.3,Y,0.0,0.0
1495573495.6,286046995.0,N,0.0,0.0
1495573515.4,286046997.5,N,0.0,0.0
1495573535.2,286046995.0,N,0.0,0.0
1495573555.1,286046998.0,N,0.0,0.0
1495573556.0,286046998.0,N,0.0,0.0
1495573575.8,286046997.9,N,0.0,0.0
1495573595.6,286046997.7,N,0.0,0.0
1495573615.5,286046997.0,N,0.0,0.0
1495573635.3,286046997.3,N,0.0,0.0
1495573655.1,286046997.2,N,0.0,0.0
1495573675.9,286046997.1,N,0.0,0.0
1495573695.7,286046997.2,N,0.0,0.0
1495573715.5,286046997.3,N,0.0,0.0
1495573735.4,286046997.2,N,0.0,0.0
1495573755.2,286046996.7,N,0.0,0.0
1495573775.0,286046996.9,N,0.0,0.0
1495573775.9,286046996.9,N,0.0,0.0
1495573795.8,286046998.5,N,0.0,0.0
1495573815.6,286046998.1,N,0.0,0.0
1495573835.4,286047000.7,N,0.0,0.0
1495573855.3,286047001.0,N,0.0,0.0
1495573875.1,286047000.8,N,0.0,0.0
1495573876.0,286047000.8,N,0.0,0.0
1495573895.8,286046998.6,N,0.0,0.0
1495573915.7,286046998.7,N,0.0,0.0
1495573935.5,286046999.6,N,0.0,0.0
1495573955.3,286046996.8,N,0.0,0.0
1495573975.2,286046996.6,N,0.0,0.0
1495573995.9,286046997.1,N,0.0,0.0
1495574015.7,286046995.0,Y,0.0,0.0
1495574035.6,286046996.7,N,0.0,0.0
1495574055.4,286046999.6,N,0.0,0.0
1495574075.2,286046999.2,N,0.0,0.0
1495574095.0,286046996.7,N,0.0,0.0
1495574096.0,286046996.7,N,0.0,0.0
1495574115.8,286046997.3,N,0.0,0.0
1495574135.6,286046997.9,N,0.0,0.0
1495574155.4,286046999.5,N,0.0,0.0
1495574175.3,286046997.1,N,0.0,0.0
1495574195.1,286046997.3,N,0.0,0.0
1495574215.8,286046995.3,N,0.0,0.0
1495574235.7,286046995.6,N,0.0,0.0
1495574255.5,286046995.6,N,0.0,0.0
1495574275.3,286046995.6,N,0.0,0.0
1495574295.2,286046996.4,N,0.0,0.0
1495574315.9,286046996.4,N,0.0,0.0
1495574335.7,286046997.3,N,0.0,0.0
1495574355.6,286046995.4,N,0.0,0.0
1495574375.4,286046996.2,N,0.0,0.0
1495574395.2,286046995.9,Y,0.0,0.0
1495574415.1,286046996.9,N,0.0,0.0
1495574416.0,286046996.9,N,0.0,0.0
1495574435.8,286046996.5,N,0.0,0.0
1495574455.6,286046997.3,N,0.0,0.0
1495574475.5,286046997.3,N,0.0,0.0
1495574495.3,286046997.3,N,0.0,0.0
1495574515.1,286046997.7,N,0.0,0.0
1495574535.9,286046996.7,N,0.0,0.0
1495574555.7,286046997.2,N,0.0,0.0
1495574575.5,286046997.6,N,0.0,0.0
1495574595.4,286046997.5,N,0.0,0.0
1495574615.2,286046997.7,N,0.0,0.0
1495574635.0,286046997.4,N,0.0,0.0
1495574635.9,286046997.4,N,0.0,0.0
1495574655.8,286046997.2,Y,0.0,0.0
1495574675.6,286046999.7,N,0.0,0.0
1495574695.4,286047000.5,N,0.0,0.0
1495574715.3,286047000.7,N,0.0,0.0
1495574735.1,286046998.1,N,0.0,0.0
1495574736.0,286046998.1,N,0.0,0.0
1495574755.8,286046998.5,N,0.0,0.0
1495574775.7,286046998.2,N,0.0,0.0
1495574795.5,286047000.8,N,0.0,0.0
1495574815.3,286047001.2,N,0.0,0.0
1495574835.1,286046998.6,N,0.0,0.0
1495574855.9,286046999.4,N,0.0,0.0
1495574875.7,286046999.4,N,0.0,0.0
1495574895.5,286046998.4,N,0.0,0.0
1495574915.4,286046999.2,N,0.0,0.0
1495574935.2,286046997.0,N,0.0,0.0
1495574955.0,286046996.6,N,0.0,0.0
1495574955.9,286046996.6,N,0.0,0.0
1495574975.8,286046996.5,N,0.0,0.0
1495574995.6,286046997.5,N,0.0,0.0
1495575015.4,286046997.3,N,0.0,0.0
1495575035.3,286046996.9,N,0.0,0.0
1495575055.1,286047000.6,N,0.0,0.0
1495575075.8,286046999.0,N,0.0,0.0
1495575095.7,286046996.8,N,0.0,0.0
1495575115.5,286046996.9,N,0.0,0.0
1495575135.3,286046997.2,N,0.0,0.0
1495575155.2,286046996.6,N,0.0,0.0
1495575175.9,286046997.0,N,0.0,0.0
1495575195.7,286046997.0,N,0.0,0.0
1495575215.6,286046996.5,N,0.0,0.0
1495575235.4,286046996.5,N,0.0,0.0
1495575255.2,286046999.1,N,0.0,0.0
1495575275.0,286046996.7,N,0.0,0.0
1495575276.0,286046996.7,N,0.0,0.0
1495575295.8,286046996.8,N,0.0,0.0
1495575315.6,286046996.5,N,0.0,0.0
1495575335.4,286046996.6,N,0.0,0.0
1495575355.3,286046996.5,Y,0.0,0.0
1495575375.1,286047000.3,N,0.0,0.0
1495575395.8,286047000.1,N,0.0,0.0
1495575415.7,286047003.7,N,0.0,0.0
1495575435.5,286047001.5,N,0.0,0.0
1495575455.3,286047001.4,N,0.0,0.0
1495575475.2,286047001.5,N,0.0,0.0
1495575495.0,286047001.5,N,0.0,0.0
1495575495.9,286047001.5,N,0.0,0.0
1495575515.7,286047002.0,N,0.0,0.0
1495575535.6,286047002.2,N,0.0,0.0
1495575555.4,286047002.7,N,0.0,0.0
1495575575.2,286047001.9,N,0.0,0.0
1495575595.1,286047001.5,N,0.0,0.0
1495575596.0,286047001.5,N,0.0,0.0
1495575615.8,286047001.7,N,0.0,0.0
1495575635.6,286047003.2,N,0.0,0.0
1495575655.5,286047002.9,N,0.0,0.0
1495575675.3,286047003.0,N,0.0,0.0
1495575695.1,286047006.0,N,0.0,0.0
1495575715.9,286047003.0,N,0.0,0.0
1495575735.7,286047003.7,N,0.0,0.0
1495575755.5,286047003.9,N,0.0,0.0
1495575795.3,286047002.1,Y
1495575815.2,286046998.1,Y
1495575835.0,286046997.4,N
1495575835.9,286046997.4,N
1495575855.7,286046997.2,N
1495575875.6,286046997.4,N
1495575895.4,286046994.9,N
1495575995.9,286046995.2,Y
1495576015.7,286047000.1,Y
1495576035.6,286047005.4,N
1495576055.4,286047005.8,N
1495576075.2,286047005.2,N
1495576095.1,286047007.1,N
1495576096.0,286047007.1,N
1495576115.8,286047007.0,N
1495576135.6,286047006.3,N
1495576155.5,286047006.5,N
1495576175.3,286047010.8,N
1495576195.1,286047010.2,Y
1495576215.9,286047003.9,N
1495576235.7,286047003.4,N
1495576255.5,286047003.1,N
1495576275.4,286047002.9,N
1495576295.2,286047003.2,N
1495576315.0,286047003.8,N
1495576315.9,286047003.8,N
1495576335.8,286047004.4,N
1495576355.6,286047001.8,N
1495576375.4,286047004.7,N
1495576395.3,286047007.6,Y
1495576415.1,286047001.1,N
1495576416.0,286047001.1,N
1495576435.8,286046999.2,N
1495576455.6,286046995.9,N
1495576475.5,286046993.3,N
1495576495.3,286046993.3,N
1495576515.1,286046992.6,N
1495576535.9,286046992.0,N
1495576555.7,286046992.5,N
1495576575.5,286046991.4,N
1495576595.4,286046988.5,N
1495576615.2,286046988.5,N
1495576635.0,286046993.1,N
1495576635.9,286046993.1,N
1495576655.8,286046989.2,Y
1495576675.6,286046993.4,N
1495576695.4,286046994.0,N
1495576715.3,286046996.4,N
1495576735.1,286046995.3,N
1495576736.0,286046995.3,N
1495576755.8,286046995.9,N
1495576775.6,286046995.9,N
1495576795.5,286046996.4,N
